{"data":{"norad_id":61929,"epoch":"2026-05-25T04:40:11.521056Z","epoch_age_seconds":54392,"freshness":"FRESH","line1":"1 61929U 24207T   26145.19457779  .00014363  00000+0  53027-3 0  9995","line2":"2 61929  42.9975 209.5812 0001169 287.8023  72.2701 15.27590557 86424","mean_motion":15.27590557,"eccentricity":0.0001169,"inclination_deg":42.9975,"raan_deg":209.5812,"arg_perigee_deg":287.8023,"mean_anomaly_deg":72.2701,"bstar":0.00053027,"rev_number":8642,"period_min":94.266097247157,"perigee_km":482.21541580658,"apogee_km":483.81955372511,"semimajor_km":6861.1544847658,"source":"CELESTRAK","updated_at":"2026-05-25T13:38:19.484356Z"}}